📊 Raw Sensor Data
Showing records 48151 to 48175 of 85,096 total
| ID | Distance (ft) | Battery V | Battery A | Int Temp (°F) | Int Humid (%) | Ext Temp (°F) | Solar V | RSSI | SNR | Time Stamp |
|---|---|---|---|---|---|---|---|---|---|---|
| 36958 | 15.5 | 3.88 | 0 | 77 | 37 | 70 | 5.10 | -75 | 7 | 04/05/2025 12:15 PM |
| 36957 | 15.5 | 3.88 | 0 | 76 | 37 | 68 | 5.10 | -76 | 7 | 04/05/2025 12:00 PM |
| 36956 | -- | 3.88 | 0 | 74 | 37 | 70 | 5.10 | -76 | 9 | 04/05/2025 11:45 AM |
| 36955 | -- | 3.88 | 0 | 72 | 37 | 67 | 5.10 | -76 | 9 | 04/05/2025 11:31 AM |
| 36954 | -- | 4.10 | 0 | 71 | 37 | 68 | 5.10 | -76 | 9 | 04/05/2025 11:15 AM |
| 36953 | -- | 4.00 | 0 | 68 | 38 | 65 | 5.10 | -77 | 8 | 04/05/2025 11:00 AM |
| 36952 | 15.4 | 3.88 | 0 | 68 | 37 | 64 | 5.10 | -77 | 7 | 04/05/2025 10:45 AM |
| 36951 | 15.4 | 4.10 | 0 | 66 | 37 | 65 | 5.10 | -76 | 8 | 04/05/2025 10:30 AM |
| 36950 | 15.3 | 3.88 | 0 | 64 | 38 | 62 | 5.10 | -75 | 8 | 04/05/2025 10:15 AM |
| 36949 | -- | 3.88 | 0 | 63 | 37 | 62 | 5.10 | -75 | 8 | 04/05/2025 10:00 AM |
| 36948 | -- | 3.88 | 0 | 60 | 38 | 59 | 5.10 | -77 | 9 | 04/05/2025 09:45 AM |
| 36947 | -- | 4.10 | 0 | 59 | 37 | 57 | 5.10 | -76 | 9 | 04/05/2025 09:30 AM |
| 36946 | -- | 3.90 | 0 | 59 | 36 | 56 | 5.10 | -76 | 9 | 04/05/2025 09:15 AM |
| 36945 | -- | 3.88 | 0 | 57 | 36 | 58 | 5.10 | -77 | 9 | 04/05/2025 09:00 AM |
| 36944 | -- | 3.88 | 0 | 54 | 36 | 55 | 5.10 | -76 | 8 | 04/05/2025 08:45 AM |
| 36943 | -- | 3.88 | 0 | 52 | 36 | 54 | 5.10 | -77 | 8 | 04/05/2025 08:30 AM |
| 36942 | -- | 3.88 | 0 | 50 | 37 | 52 | 5.10 | -76 | 9 | 04/05/2025 08:16 AM |
| 36941 | -- | 3.88 | 0 | 47 | 37 | 50 | 5.10 | -77 | 9 | 04/05/2025 08:00 AM |
| 36940 | -- | 3.89 | 0 | 44 | 38 | 50 | 5.10 | -77 | 9 | 04/05/2025 07:45 AM |
| 36939 | -- | 3.96 | 18 | 42 | 39 | 48 | 4.50 | -77 | 7 | 04/05/2025 07:30 AM |
| 36938 | -- | 3.93 | 0 | 40 | 40 | 46 | 4.50 | -78 | 9 | 04/05/2025 07:15 AM |
| 36937 | -- | 3.84 | 0 | 39 | 40 | 42 | 4.50 | -77 | 8 | 04/05/2025 07:00 AM |
| 36936 | -- | 3.81 | -10 | 39 | 40 | 41 | 4.50 | -78 | 7 | 04/05/2025 06:45 AM |
| 36935 | 15.2 | 3.83 | -5 | 39 | 40 | 40 | 1.60 | -77 | 8 | 04/05/2025 06:30 AM |
| 36934 | 15.1 | 3.89 | -5 | 40 | 40 | 42 | 0.00 | -77 | 9 | 04/05/2025 06:15 AM |